Ogden, UT

12:53 PM MST on February 25, 2018 (GMT -0700)
Ogden-Hinckley

Weather History for KOGD - October, 2012

Change the Weather History Date:

Wednesday, October 10, 2012

  Actual Average Record
Temperature  
Mean Temperature 60 °F -  
Max Temperature 75 °F 69 °F 86 °F (1996)
Min Temperature 46 °F 40 °F 29 °F (1941)
Degree Days  
Heating Degree Days 4    
Growing Degree Days 10 (Base 50)    
Moisture  
Dew Point 25 °F    
Average Humidity 27    
Maximum Humidity 43    
Minimum Humidity 18    
Precipitation  
Precipitation 0.00 in - - ()
Sea Level Pressure  
Sea Level Pressure 29.91 in    
Wind  
Wind Speed 6 mph (South)    
Max Wind Speed 10 mph    
Max Gust Speed -    
Visibility 10 miles    
Events      
Averages and records for this station are not official NWS values.
T = Trace of Precipitation, MM = Missing Value Source: NWS Daily Summary

Daily Weather History Graph

Daily Weather History Graph

Search for Another Location

Airport or City:

Trip Planner

Search our weather history database for the weather conditions in past years. The results will help you decide how hot, cold, wet, or windy it might be!

Date:

Astronomy

Oct. 10, 2012 Rise Set
Actual Time 7:34 AM MDT 6:54 PM MDT
Civil Twilight 7:07 AM MDT 7:21 PM MDT
Nautical Twilight 6:35 AM MDT 7:53 PM MDT
Astronomical Twilight 6:03 AM MDT 8:25 PM MDT
Moon 2:12 AM MDT (10/10) 4:01 PM MDT (10/10)
Length of Visible Light 12h 14m
Length of Day
11h 19m
Waning Crescent, 26% of the Moon is Illuminated
Oct 10
Waning Crescent
Oct 15
New
Oct 21
First Quarter
Oct 29
Full
Nov 6
Last Quarter

Hourly Weather History & Observations

Time (MDT) Temp. Windchill Dew Point Humidity Pressure Visibility Wind Dir Wind Speed Gust Speed Precip Events Conditions
12:53 AM 50.0 °F - 16.0 °F 26% 29.94 in 10.0 mi South 5.8 mph - N/A   Clear
1:53 AM 50.0 °F - 17.1 °F 27% 29.94 in 10.0 mi South 10.4 mph - N/A   Clear
2:53 AM 48.9 °F - 17.1 °F 28% 29.95 in 10.0 mi South 8.1 mph - N/A   Clear
3:53 AM 48.0 °F - 17.1 °F 29% 29.94 in 10.0 mi South 9.2 mph - N/A   Clear
4:53 AM 48.9 °F - 17.1 °F 28% 29.94 in 10.0 mi South 10.4 mph - N/A   Clear
5:53 AM 48.0 °F - 17.1 °F 29% 29.94 in 10.0 mi South 10.4 mph - N/A   Clear
6:53 AM 46.9 °F - 17.1 °F 30% 29.96 in 10.0 mi South 6.9 mph - N/A   Clear
7:53 AM 46.0 °F 43.1 °F 18.0 °F 33% 29.98 in 10.0 mi South 5.8 mph - N/A   Clear
8:53 AM 50.0 °F - 19.0 °F 29% 29.99 in 10.0 mi South 4.6 mph - N/A   Clear
9:53 AM 55.9 °F - 19.9 °F 25% 29.99 in 10.0 mi Calm Calm - N/A   Clear
10:53 AM 63.0 °F - 21.9 °F 21% 29.98 in 10.0 mi Calm Calm - N/A   Clear
11:53 AM 68.0 °F - 24.1 °F 19% 29.94 in 10.0 mi SSE 5.8 mph - N/A   Clear
12:53 PM 71.1 °F - 25.0 °F 18% 29.93 in 10.0 mi WSW 5.8 mph - N/A   Clear
1:53 PM 73.0 °F - 28.9 °F 20% 29.90 in 10.0 mi WSW 5.8 mph - N/A   Clear
2:53 PM 75.0 °F - 30.0 °F 19% 29.88 in 10.0 mi West 8.1 mph - N/A   Clear
3:53 PM 73.9 °F - 28.0 °F 18% 29.87 in 10.0 mi West 4.6 mph - N/A   Clear
4:53 PM 73.9 °F - 28.0 °F 18% 29.84 in 10.0 mi NNW 3.5 mph - N/A   Clear
5:53 PM 73.0 °F - 27.0 °F 18% 29.84 in 10.0 mi Calm Calm - N/A   Clear
6:53 PM 68.0 °F - 28.9 °F 23% 29.85 in 10.0 mi Calm Calm - 0.00 in   Clear
7:53 PM 63.0 °F - 32.0 °F 31% 29.86 in 10.0 mi Calm Calm - N/A   Clear
8:53 PM 62.1 °F - 32.0 °F 32% 29.86 in 10.0 mi South 6.9 mph - N/A   Clear
9:53 PM 62.1 °F - 30.0 °F 30% 29.86 in 10.0 mi South 9.2 mph - N/A   Clear
10:53 PM 62.1 °F - 39.0 °F 43% 29.86 in 10.0 mi SE 5.8 mph - N/A   Clear
11:53 PM 62.1 °F - 39.0 °F 43% 29.84 in 10.0 mi SE 6.9 mph - N/A   Clear